Location: Austin
(30.3000°N, 97.7500°W)
Time: 12:42:57
(UTC-06:00)

ATLAS CENTAUR R/B - Pass Details

Date: 04 November 2025
Orbit: 353 x 445 km, 64.6° (Epoch: 07 November)

Event Time Altitude Azimuth Distance (km) Brightness Sun altitude
Rises 18:46:37 0° 199° (SSW) 2,377 5.0 -14.6°
Reaches altitude 10° 18:48:40 10° 196° (SSW) 1,527 3.9 -15.0°
Maximum altitude 18:52:02 61° 115° (ESE) 501 0.8 -15.8°
Enters shadow 18:53:26 32° 47° (NE) 788 1.7 -16.1°
